141  
FPUS83 KFGF 190810  
OPUFGF  
PRAIRIE TO PINES WEATHER ROUNDUP  
NATIONAL WEATHER SERVICE EASTERN NORTH DAKOTA/GRAND FORKS ND  
300 AM CDT TUE MAR 19 2019  
 
**SATELLITE DATA USED TO AUGMENT SKY COVER AT AUTOMATED STATIONS**  
***** WEATHER ACROSS EASTERN NORTH DAKOTA *****  
 
CITY SKY/WX TMP DP RH WIND PRES REMARKS  
GRAND FORKS CLOUDY 29 26 89 S3 30.13S  
GRND FORKS AFB CLOUDY 33 30 92 CALM 30.13R  
GRND FORKS NWS N/A 30 28 94 S3 30.10S  
BUXTON NOT AVBL  
DEVILS LAKE FOG 18 17 96 CALM 30.13R VSB 1/4  
FARGO CLOUDY 31 27 85 S7 30.15S WCI 24  
WAHPETON ARPT CLOUDY 30 27 86 S7 30.16F WCI 23  

 
 
***** WEATHER ACROSS CENTRAL AND WESTERN NORTH DAKOTA *****  
 
CITY SKY/WX TMP DP RH WIND PRES REMARKS  
JAMESTOWN FAIR 27 24 89 W3 30.11S  
BISMARCK FAIR 27 25 92 NW5 30.16R WCI 22  
MINOT FAIR 30 27 88 W13 30.14R WCI 20  
MINOT AFB FAIR 27 25 92 NW13 30.13R WCI 16  
GARRISON N/A 23 22 96 CALM 30.14R  
WILLISTON FAIR 27 24 89 CALM 30.20R  
DICKINSON CLOUDY 31 28 89 NW10 30.14R WCI 22  
HETTINGER CLOUDY 26 23 88 NW6 30.17R WCI 19  

 
 
***** OTHER OBSERVATIONS NORTHEAST NORTH DAKOTA *****  
 
CITY SKY/WX TMP DP RH WIND PRES REMARKS  
WALHALLA FAIR 21 21 100 SW3 30.11S FOG  
LANGDON FOG 16 16 100 NW3 30.10S VSB<1/4  
CAVALIER FOG 19 19 100 CALM 30.12R VSB<1/4  
GRAFTON CLOUDY 30 30 100 MISG 30.15R  
CANDO FOG 18 18 100 W6 30.13S VSB<1/4 WCI 9  
FORT TOTTEN N/A 25 24 95 CALM 29.95S  
ROLLA FAIR 25 25 100 NW8 30.10S WCI 16  
RUGBY FOG 21 21 100 W5 30.12R VSB<1/4 WCI 15  
***** THE ABOVE OBSERVATIONS ARE NON NWS ARE NOT QUALITY  
CONTROLLED AND MAY MIS-REPORT RAIN FOR SNOW...  

 
 
***** OTHER OBSERVATIONS SOUTHEAST NORTH DAKOTA *****  
 
CITY SKY/WX TMP DP RH WIND PRES REMARKS  
COOPERSTOWN FAIR 25 25 100 SW3 30.12S  
VALLEY CITY N/A N/A N/A N/A MISG N/A  
OAKES CLOUDY 27 27 100 SW7 30.14S WCI 19  
GWINNER N/A 28 28 100 SW9 30.15R WCI 20  
SHEYENNE NWR N/A 30 29 98 W3 29.95S  
BUFFALO NOT AVBL  
WYNDMERE NOT AVBL  
***** THE ABOVE OBSERVATIONS ARE NON NWS ARE NOT QUALITY  
CONTROLLED AND MAY MIS-REPORT RAIN FOR SNOW...  

 
 
***** WEATHER ACROSS NORTHERN MINNESOTA *****  
 
CITY SKY/WX TMP DP RH WIND PRES REMARKS  
FLAG ISLAND CLOUDY 28 23 80 CALM 30.11R  
WARROAD CLOUDY 28 25 86 SW5 30.12S WCI 23  
ROSEAU CLOUDY 30 25 80 S6 30.12S WCI 24  
HALLOCK FAIR 19 18 93 S8 30.11F FOG WCI 9  
THF RVR FALLS CLOUDY 28 25 88 SW7 30.14R WCI 21  
HALSTAD NOT AVBL  
FOSSTON CLOUDY 27 23 86 S10 30.14S WCI 17  
BAUDETTE FAIR 26 18 71 S5 30.12S WCI 20  
WASKISH FAIR 23 18 80 S3 30.14S  
CROOKSTON CLOUDY 28 28 100 S6 30.14F WCI 22  

 
***** WEATHER ACROSS CENTRAL AND WEST MINNESOTA *****  
 
CITY SKY/WX TMP DP RH WIND PRES REMARKS  
BEMIDJI FAIR 27 22 80 S3 30.13F  
PARK RAPIDS CLOUDY 29 23 78 S7 30.15F WCI 22  
WADENA CLOUDY 27 25 93 S5 30.17S WCI 21  
DETROIT LAKES CLOUDY 32 27 80 SE3 30.16S  
MOORHEAD CLOUDY 28 27 93 S6 30.17S WCI 22  
FERGUS FALLS CLOUDY 28 27 93 S7 30.16F WCI 21  
ELBOW LAKE CLOUDY 28 26 90 E7 30.17F WCI 21  
MORRIS MN MOCLDY 25 23 93 SE8 30.13F WCI 16  
STAPLES CLOUDY 27 25 93 S6 30.18F WCI 20  
WHEATON FAIR 27 23 86 SE7 30.19F WCI 19  

 
***** WEATHER ELSEWHERE ACROSS MINNESOTA *****  
 
CITY SKY/WX TMP DP RH WIND PRES REMARKS  
DULUTH MOCLDY 28 21 75 W7 30.19S WCI 21  
INTRNTL FALLS CLOUDY 28 17 63 MISG 30.15S  
ELY CLOUDY 30 19 64 SW5 30.16F  
CLOQUET MOCLDY 28 21 74 SW5 30.20F WCI 23  
BRAINERD FAIR 28 22 78 S7 30.19F WCI 21  
HIBBING FAIR 19 15 84 SE3 30.18S  
ALEXANDRIA MOCLDY 32 24 72 S9 30.18F WCI 24  
SAINT CLOUD CLOUDY 30 26 85 S7 30.23S WCI 23  
MINNEAPOLIS MOCLDY 30 24 78 SE6 30.28S WCI 24  

 
 
***** WEATHER ACROSS SOUTH DAKOTA *****  
 
CITY SKY/WX TMP DP RH WIND PRES REMARKS  
SIOUX FALLS FAIR 35 26 69 S10 30.20F  
BROOKINGS FAIR 30 25 81 S6 30.19R WCI 24  
WATERTOWN CLOUDY 28 23 81 CALM 30.16R  
HURON FAIR 27 24 89 S5 30.17S WCI 22  
SISSETON N/A 33 27 78 W6 30.16R  
ABERDEEN CLOUDY 26 24 92 SW3 30.17R  
MITCHELL FAIR 34 27 75 MISG 30.19S  
PIERRE FAIR 30 27 88 SW7 30.15R WCI 23  
MOBRIDGE FAIR 25 21 85 N5 30.11S WCI 19  
RAPID CITY FAIR 34 25 69 N14 30.16S WCI 25  

 
 
***** SOME WEATHER IN NEARBY STATES *****  
 
CITY SKY/WX TMP DP RH WIND PRES REMARKS  
GLASGOW MT FAIR 25 20 81 NW9 30.24S WCI 15  
GREAT FALLS MT FAIR 28 20 71 SW13 30.26F WCI 17  
CHEYENNE WY FAIR 27 20 75 NW10 30.17S WCI 17  
SCOTTSBLUFF NE FAIR 29 28 96 NW6 30.18S WCI 23  
OMAHA NE CLOUDY 37 24 59 S6 30.29F  
DES MOINES IA FAIR 32 21 64 S6 30.34S  
DAVENPORT IA FAIR 30 25 81 CALM 30.39F  
CHICAGO IL MOCLDY 33 25 72 SW6 30.36S  
EAU CLAIRE WI FAIR 25 21 85 CALM 30.30R  
LA CROSSE WI FAIR 30 26 85 S6 30.34S WCI 24  

 
 
***** SOME NATIONAL WEATHER *****  
 
CITY SKY/WX TMP DP RH WIND PRES REMARKS  
LA GUARDIA NY FAIR 37 20 50 N8 30.36S  
RALEIGH NC CLOUDY 35 34 96 NE5 30.36S  
ATLANTA GA CLOUDY 43 18 36 NE7 30.28F  
NEW ORLEANS LA MOCLDY 57 41 55 NE7 30.24F  
OKLAHOMA CITY FAIR 43 32 65 S7 30.21F  
ALBUQUERQUE NM MOCLDY 48 25 40 SE8 30.15F  
SALT LAKE CITY FAIR 40 32 73 CALM 30.20R  
LOS ANGELES CA FAIR 57 54 89 CALM 29.97F  
BOISE ID FAIR 46 24 42 SE16 30.23R  
SEATTLE WA FAIR 63 21 20 E18G26 30.10R  

 
 
*** WEATHER ACROSS MANITOBA...SASKATCHEWAN AND ONTARIO ***  
***ONTARIO***  
 
CITY SKY/WX TMP DP RH WIND PRES REMARKS  
GERALDTON PTCLDY 14 12 92 S3 30.16F  
THUNDER BAY PTCLDY 25 25 100 NW3 30.19S  
SIOUX LOOKOUT MOCLDY 21 21 100 S5 30.10S WCI 15  
TORONTO PTCLDY 27 19 74 W2 30.32S  
BIG TROUT LK CLEAR 18 10 73 SW6 30.01F WCI 9  
PICKLE LAKE NOT AVBL  
DRYDEN CLOUDY 32 21 64 SW5 30.09R  
KENORA MOCLDY 28 23 80 SW7 30.09S WCI 21  

 
*** MANITOBA***  
 
CITY SKY/WX TMP DP RH WIND PRES REMARKS  
BRANDON CLEAR 19 16 86 NW9 30.12R WCI 9  
DAUPHIN CLEAR 30 27 86 W9 30.11S WCI 22  
ISLAND LAKE PTCLDY 21 14 73 SW2 30.02S  
PILOT MOUND N/A 16 14 93 W3 N/A  
THE PAS CLOUDY 30 25 80 SW7 30.02F WCI 23  
THOMPSON MOCLDY 28 23 80 S2 29.91F  
WINNIPEG FOG 18 14 86 CALM 30.12S VSB 1/8  
LYNN LAKE CLOUDY 36 30 80 SW10 29.80F  
CHURCHILL CLOUDY 10 9 92 S7 29.83F WCI 0  
GILLAM CLOUDY 27 21 80 SW9 29.89F WCI 17  

 
***SASKATCHEWAN***  
 
CITY SKY/WX TMP DP RH WIND PRES REMARKS  
ESTEVAN CLEAR 25 23 93 NW8 30.17R WCI 16  
KINDERSLEY CLEAR 28 25 86 SW8 30.20S WCI 20  
LLOYDMINSTER CLEAR 32 27 80 SW13 30.11F WCI 22  
PRINCE ALBERT MOCLDY 27 21 80 W3 30.11F  
REGINA CLEAR 21 21 100 W5 30.19R WCI 15  
YORKTON PTCLDY 28 25 86 W10 30.12S WC  
 
CLICK HERE TO GO TO PREVIOUS BULLETINS.

The Nexlab ND Page
The Nexlab MN Page Main Text Page